Tracking 19170 objects as of 23-May-2018
HD Live streaming from Space Station
objects crossing your sky now

NNSS 19 (TRANSIT 19)

Track NNSS 19 (TRANSIT 19) now!
10-day predictions
NNSS 19 (TRANSIT 19) is classified as:


NORAD ID: 4507
Int'l Code: 1970-067A
Perigee: 948.9 km
Apogee: 1,204.9 km
Inclination: 89.8 °
Period: 106.6 minutes
Semi major axis: 7447 km
RCS: 1.5637 m2 (large)
Launch date: August 27, 1970
Source: United States (US)
Launch site: AIR FORCE WESTERN TEST RANGE (AFWTR)
aabbcc
Your satellite tracking list
Your tracking list is empty




NASA's NSSDC Master Catalog

Two Line Element Set (TLE):
1 04507U 70067A   18142.38150736  .00000024  00000-0  20832-4 0  9990
2 04507  89.8486 257.2586 0171866   9.5298 350.9044 13.50682528349807
Source of the keplerian elements: AFSPC